User: anonymous   Login
Location: Unspecified
(0.0000°N, 0.0000°E)
Time: 10:36:04
(UTC+00:00)
Language:

ARGOS - Orbit

View from above orbital plane
View from above orbital plane
View from above satellite
View from above satellite

Ground track
Ground track

The orbit data is extracted from the following two-line orbital elements,

1 25634U 99008A   18346.71842702 -.00000023 +00000-0 +90759-5 0  9990
2 25634 098.5434 037.6164 0011276 079.8606 280.3842 14.19344255025074
Epoch (UTC): 12 December 2018 17:14:32
Eccentricity: 0.0011276
inclination: 98.5434°
perigee height: 819 km
apogee height: 835 km
right ascension of ascending node: 37.6164°
argument of perigee: 79.8606°
revolutions per day: 14.19344255
mean anomaly at epoch: 280.3842°
orbit number at epoch: 2507

The dashed part of the orbit path shows where the satellite is in the earth's shadow,  

DLR